Bat Cave, NC

9:17 AM EST on February 10, 2016 (GMT -0500)
Asheville Regional

Weather History for KAVL - January, 2013

Change the Weather History Date:

Monday, January 14, 2013

  Actual Average Record
Temperature  
Mean Temperature 53 °F 37 °F  
Max Temperature 60 °F 47 °F 76 °F (1932)
Min Temperature 45 °F 26 °F -4 °F (1893)
Degree Days  
Heating Degree Days 12 28  
Month to date heating degree days 273 392  
Since 1 July heating degree days 1830 2053  
Cooling Degree Days 0 0  
Month to date cooling degree days 0 0  
Year to date cooling degree days 0 0  
Growing Degree Days 2 (Base 50)    
Moisture  
Dew Point 53 °F    
Average Humidity 95    
Maximum Humidity 100    
Minimum Humidity 90    
Precipitation  
Precipitation 1.01 in 0.12 in 3.88 in (1995)
Month to date precipitation 1.92 1.60  
Year to date precipitation 1.92 1.60  
Snow  
Snow 0.00 in 0.20 in 4.40 in (1982)
Month to date snowfall 0.0 1.8  
Since 1 July snowfall T 2.8  
Snow Depth 0.00 in    
Sea Level Pressure  
Sea Level Pressure 30.11 in    
Wind  
Wind Speed 9 mph (North)    
Max Wind Speed 25 mph    
Max Gust Speed 30 mph    
Visibility 6 miles    
Events Rain    
T = Trace of Precipitation, MM = Missing Value Source: NWS Daily Summary

Daily Weather History Graph

Daily Weather History Graph

Search for Another Location

Airport or City:

Trip Planner

Search our weather history database for the weather conditions in past years. The results will help you decide how hot, cold, wet, or windy it might be!

Date:

Astronomy

Jan. 14, 2013 Rise Set
Actual Time 7:38 AM EST 5:40 PM EST
Civil Twilight 7:11 AM EST 6:07 PM EST
Nautical Twilight 6:39 AM EST 6:39 PM EST
Astronomical Twilight 6:09 AM EST 7:09 PM EST
Moon 9:20 AM EST (1/14) 9:14 PM EST (1/14)
Length of Visible Light 10h 56m
Length of Day
10h 01m
Waxing Crescent, 11% of the Moon is Illuminated
Jan 14
Waxing Crescent
Jan 18
First Quarter
Jan 26
Full
Feb 3
Last Quarter
Feb 10
New

Hourly Weather History & Observations

Time (EST) Temp. Windchill Dew Point Humidity Pressure Visibility Wind Dir Wind Speed Gust Speed Precip Events Conditions
12:54 AM 60.1 °F - 59.0 °F 96% 30.05 in 4.0 mi SSE 5.8 mph - 0.08 in Rain Light Rain
1:02 AM 60.8 °F - 59.0 °F 94% 30.10 in 4.0 mi SSE 5.8 mph - N/A Rain Light Rain
1:47 AM 60.8 °F - 59.0 °F 94% 30.11 in 9.0 mi South 4.6 mph - 0.04 in Rain Light Rain
1:54 AM 60.1 °F - 59.0 °F 96% 30.06 in 7.0 mi South 4.6 mph - 0.05 in Rain Rain
2:25 AM 60.8 °F - 59.0 °F 94% 30.10 in 7.0 mi SE 9.2 mph - 0.06 in Rain Light Rain
2:54 AM 60.1 °F - 57.9 °F 93% 30.05 in 10.0 mi SSE 6.9 mph - 0.09 in Rain Light Rain
3:29 AM 59.0 °F - 57.2 °F 94% 30.09 in 10.0 mi SSE 6.9 mph - 0.00 in   Overcast
3:41 AM 59.0 °F - 57.2 °F 94% 30.08 in 10.0 mi SSE 6.9 mph - 0.00 in   Overcast
3:54 AM 60.1 °F - 57.9 °F 93% 30.04 in 10.0 mi SSE 5.8 mph - 0.00 in   Overcast
4:54 AM 59.0 °F - 57.2 °F 94% 30.07 in 9.0 mi SSE 5.8 mph - N/A   Overcast
5:46 AM 59.0 °F - 57.2 °F 94% 30.07 in 10.0 mi SSE 5.8 mph - 0.00 in   Overcast
5:54 AM 59.0 °F - 57.9 °F 96% 30.03 in 10.0 mi South 4.6 mph - 0.00 in   Overcast
6:54 AM 60.8 °F - 57.2 °F 88% 30.09 in 6.0 mi SSE 4.6 mph - N/A Rain Light Rain
7:00 AM 59.0 °F - 57.2 °F 94% 30.10 in 4.0 mi SSE 3.5 mph - 0.00 in Rain Light Rain
7:43 AM 59.0 °F - 57.2 °F 94% 30.11 in 10.0 mi South 4.6 mph - 0.01 in   Overcast
7:54 AM 59.0 °F - 57.9 °F 96% 30.06 in 2.5 mi South 5.8 mph - 0.01 in   Overcast
7:57 AM 59.0 °F - 57.2 °F 94% 30.11 in 10.0 mi SSE 5.8 mph - N/A   Overcast
8:08 AM 59.0 °F - 57.2 °F 94% 30.11 in 2.5 mi South 6.9 mph - N/A   Overcast
8:54 AM 59.0 °F - 59.0 °F 100% 30.08 in 2.5 mi South 5.8 mph - 0.00 in Rain Light Rain
9:01 AM 59.0 °F - 59.0 °F 100% 30.13 in 7.0 mi SSE 3.5 mph - 0.01 in Rain Light Rain
9:10 AM 59.0 °F - 59.0 °F 100% 30.13 in 2.5 mi SSE 3.5 mph - 0.01 in Rain Light Rain
9:17 AM 59.0 °F - 59.0 °F 100% 30.13 in 2.5 mi SE 3.5 mph - 0.02 in Rain Light Rain
9:54 AM 60.1 °F - 59.0 °F 96% 30.09 in 2.5 mi SSE 3.5 mph - 0.07 in Rain Heavy Rain
10:01 AM 60.8 °F - 59.0 °F 94% 30.14 in 4.0 mi SSE 4.6 mph - 0.01 in Rain Rain
10:09 AM 60.8 °F - 59.0 °F 94% 30.14 in 2.5 mi SE 3.5 mph - 0.03 in Rain Light Rain
10:24 AM 60.8 °F - 59.0 °F 94% 30.13 in 2.5 mi Calm Calm - 0.04 in Rain Light Rain
10:37 AM 57.2 °F - 55.4 °F 94% 30.13 in 2.5 mi NNW 8.1 mph - 0.05 in Rain Light Rain
10:54 AM 55.0 °F - 54.0 °F 96% 30.10 in 2.5 mi NNW 9.2 mph - 0.05 in Rain Light Rain
11:01 AM 55.4 °F - 53.6 °F 94% 30.13 in 10.0 mi NNW 12.7 mph - 0.00 in Rain Light Rain
11:15 AM 53.6 °F - 51.8 °F 94% 30.13 in 10.0 mi NNW 15.0 mph - 0.00 in Rain Light Rain
11:47 AM 53.6 °F - 51.8 °F 94% 30.12 in 7.0 mi NNW 16.1 mph - 0.00 in Rain Light Rain
11:54 AM 52.0 °F - 51.1 °F 97% 30.08 in 4.0 mi NNW 11.5 mph - 0.00 in Rain Light Rain
12:03 PM 51.8 °F - 51.8 °F 100% 30.10 in 2.5 mi NNW 13.8 mph - 0.00 in Rain Light Rain
12:13 PM 51.8 °F - 51.8 °F 100% 30.10 in 2.5 mi NNW 13.8 mph - 0.00 in Rain Light Rain
12:54 PM 51.1 °F - 50.0 °F 96% 30.06 in 2.5 mi North 9.2 mph - 0.01 in Rain Light Rain
1:01 PM 51.8 °F - 50.0 °F 94% 30.09 in 5.0 mi North 10.4 mph - 0.00 in Rain Light Rain
1:08 PM 51.8 °F - 50.0 °F 94% 30.09 in 1.5 mi North 11.5 mph - 0.01 in Rain Light Rain
1:54 PM 51.1 °F - 50.0 °F 96% 30.05 in 1.5 mi North 10.4 mph - 0.08 in Rain Rain
2:01 PM 51.8 °F - 50.0 °F 94% 30.09 in 6.0 mi NNW 12.7 mph - 0.02 in Rain Light Rain
2:54 PM 51.1 °F - 51.1 °F 100% 30.06 in 5.0 mi Variable 3.5 mph - 0.14 in Rain Rain
3:17 PM 51.8 °F - 51.8 °F 100% 30.09 in 2.5 mi North 3.5 mph - 0.07 in Rain Rain
3:24 PM 51.8 °F - 51.8 °F 100% 30.09 in 4.0 mi NNW 6.9 mph - 0.09 in Rain Rain
3:54 PM 52.0 °F - 51.1 °F 97% 30.07 in 5.0 mi NNW 9.2 mph - 0.10 in Rain Light Rain
4:17 PM 51.8 °F - 50.0 °F 94% 30.11 in 10.0 mi North 4.6 mph - 0.03 in Rain Light Rain
4:45 PM 51.8 °F - 51.8 °F 100% 30.11 in 10.0 mi NNW 5.8 mph - 0.04 in Rain Light Rain
4:54 PM 51.1 °F - 51.1 °F 100% 30.08 in 10.0 mi NNW 10.4 mph - 0.04 in Rain Light Rain
5:35 PM 51.8 °F - 51.8 °F 100% 30.12 in 10.0 mi NNW 5.8 mph - 0.01 in Rain Light Rain
5:54 PM 51.1 °F - 51.1 °F 100% 30.10 in 10.0 mi NNW 8.1 mph - 0.01 in Rain Light Rain
6:20 PM 51.8 °F - 51.8 °F 100% 30.13 in 5.0 mi NNW 8.1 mph - 0.03 in Rain Light Rain
6:40 PM 51.8 °F - 51.8 °F 100% 30.13 in 10.0 mi North 5.8 mph - 0.04 in Rain Light Rain
6:54 PM 51.1 °F - 51.1 °F 100% 30.11 in 10.0 mi NNW 11.5 mph - 0.04 in   Overcast
7:07 PM 51.8 °F - 50.0 °F 94% 30.15 in 10.0 mi NNW 12.7 mph - 0.00 in Rain Light Rain
7:43 PM 48.2 °F - 46.4 °F 93% 30.16 in 4.0 mi NNW 23.0 mph 28.8 mph 0.03 in Rain Rain
7:54 PM 48.0 °F - 46.9 °F 96% 30.13 in 8.0 mi NNW 19.6 mph - 0.04 in Rain Light Rain
8:54 PM 46.9 °F - 45.0 °F 93% 30.14 in 6.0 mi NNW 19.6 mph 27.6 mph 0.09 in Rain Heavy Rain
9:08 PM 46.4 °F 39.0 °F 44.6 °F 93% 30.18 in 6.0 mi North 19.6 mph 29.9 mph 0.02 in Rain Rain
9:35 PM 46.4 °F 39.0 °F 46.4 °F 100% 30.18 in 10.0 mi North 19.6 mph 27.6 mph 0.08 in Rain Light Rain
9:54 PM 46.0 °F 38.8 °F 45.0 °F 96% 30.16 in 4.0 mi North 18.4 mph 28.8 mph 0.10 in Rain Rain
10:08 PM 46.4 °F 40.1 °F 46.4 °F 100% 30.20 in 8.0 mi NNW 15.0 mph 23.0 mph 0.02 in Rain Light Rain
10:26 PM 44.6 °F 38.1 °F 44.6 °F 100% 30.18 in 9.0 mi North 13.8 mph - 0.02 in Rain Light Rain
10:54 PM 45.0 °F 38.9 °F 45.0 °F 100% 30.16 in 10.0 mi North 12.7 mph - 0.02 in   Overcast
11:54 PM 46.0 °F 44.8 °F 46.0 °F 100% 30.15 in 10.0 mi NNE 3.5 mph - N/A   Mostly Cloudy